Lubbock, TX

8:19 PM CST on November 16, 2019 (GMT -0600)
Lubbock International

Weather History for KLBB - August, 2019

Change the Weather History Date:

Sunday, August 11, 2019

  Actual Average Record
Temperature  
Mean Temperature 87 °F 80 °F  
Max Temperature 100 °F 92 °F 103 °F (1936)
Min Temperature 73 °F 67 °F 56 °F (1915)
Degree Days  
Heating Degree Days 0 0  
Month to date heating degree days 0 0  
Since 1 June heating degree days 0 2  
Since 1 July heating degree days 0 0  
Cooling Degree Days 22 15  
Month to date cooling degree days 235 165  
Year to date cooling degree days 1342 1258  
Since 1 June cooling degree days 1132 1012  
Growing Degree Days 38 (Base 50)    
Moisture  
Dew Point 58 °F    
Average Humidity 41    
Maximum Humidity 60    
Minimum Humidity 22    
Precipitation  
Precipitation 0.00 in 0.06 in 1.26 in (1981)
Month to date precipitation 0.13 0.68  
Year to date precipitation 13.58 11.84  
Snow  
Snow 0.00 in 0.00 in T in (1949)
Month to date snowfall 0.0 0.0  
Since 1 June snowfall 0.0 0.0  
Since 1 July snowfall 0.0 0.0  
Snow Depth 0.00 in    
Sea Level Pressure  
Sea Level Pressure 29.85 in    
Wind  
Wind Speed 11 mph (South)    
Max Wind Speed 20 mph    
Max Gust Speed 26 mph    
Visibility 10 miles    
Events Thunderstorm    
T = Trace of Precipitation, MM = Missing Value Source: NWS Daily Summary

Daily Weather History Graph

Daily Weather History Graph

Search for Another Location

Airport or City:

Astronomy

Aug. 11, 2019 Rise Set
Actual Time 7:06 AM CDT 8:38 PM CDT
Civil Twilight 6:39 AM CDT 9:04 PM CDT
Nautical Twilight 6:07 AM CDT 9:36 PM CDT
Astronomical Twilight 5:34 AM CDT 10:09 PM CDT
Moon 6:12 PM CDT (8/11) 3:34 AM CDT (8/11)
Length of Visible Light 14h 24m
Length of Day
13h 31m
Waxing Gibbous, 87% of the Moon is Illuminated
Aug 11
Waxing Gibbous
Aug 15
Full
Aug 23
Last Quarter
Aug 30
New
Sep 5
First Quarter

Hourly Weather History & Observations

Time (CDT) Temp. Heat Index Dew Point Humidity Pressure Visibility Wind Dir Wind Speed Gust Speed Precip Events Conditions
12:53 AM 84.9 °F 84.8 °F 60.1 °F 43% 29.82 in 10.0 mi SSE 12.7 mph - N/A   Scattered Clouds
1:53 AM 82.9 °F 83.2 °F 60.1 °F 46% 29.82 in 10.0 mi SSE 12.7 mph - N/A   Scattered Clouds
2:53 AM 84.0 °F 84.0 °F 60.1 °F 44% 29.82 in 10.0 mi South 12.7 mph - N/A   Scattered Clouds
3:53 AM 82.9 °F 82.8 °F 59.0 °F 44% 29.82 in 10.0 mi South 10.4 mph - N/A   Partly Cloudy
4:53 AM 82.9 °F 82.6 °F 57.9 °F 42% 29.83 in 10.0 mi SSW 11.5 mph - N/A   Partly Cloudy
5:53 AM 80.1 °F 80.6 °F 57.9 °F 47% 29.84 in 10.0 mi South 9.2 mph - N/A   Partly Cloudy
6:53 AM 79.0 °F - 57.9 °F 48% 29.84 in 10.0 mi South 11.5 mph - N/A   Partly Cloudy
7:53 AM 79.0 °F - 57.9 °F 48% 29.86 in 10.0 mi South 9.2 mph - N/A   Clear
8:53 AM 82.0 °F 82.1 °F 59.0 °F 45% 29.88 in 10.0 mi South 10.4 mph - N/A   Scattered Clouds
9:53 AM 82.9 °F 82.8 °F 59.0 °F 44% 29.89 in 10.0 mi South 12.7 mph - N/A   Scattered Clouds
10:10 AM 81.0 °F 81.7 °F 61.0 °F 50% 30.07 in 10.0 mi SSE 11.5 mph - N/A Thunderstorm Thunderstorm
10:48 AM 87.8 °F 87.6 °F 60.8 °F 40% 30.08 in 10.0 mi South 9.2 mph - N/A   Mostly Cloudy
10:53 AM 86.0 °F 85.7 °F 60.1 °F 41% 29.90 in 10.0 mi South 9.2 mph - N/A   Mostly Cloudy
11:53 AM 91.0 °F 90.9 °F 61.0 °F 36% 29.89 in 10.0 mi South 10.4 mph - N/A   Partly Cloudy
12:53 PM 95.0 °F 95.6 °F 62.1 °F 33% 29.87 in 10.0 mi SW 11.5 mph 18.4 mph N/A   Partly Cloudy
1:53 PM 97.0 °F 96.5 °F 59.0 °F 28% 29.84 in 10.0 mi South 11.5 mph - N/A   Partly Cloudy
2:53 PM 99.0 °F 97.7 °F 55.9 °F 24% 29.81 in 10.0 mi SSE 9.2 mph 20.7 mph N/A   Partly Cloudy
3:53 PM 100.0 °F 99.2 °F 57.0 °F 24% 29.78 in 10.0 mi SE 10.4 mph 20.7 mph N/A   Partly Cloudy
4:53 PM 99.0 °F 97.3 °F 55.0 °F 23% 29.77 in 10.0 mi South 6.9 mph 18.4 mph N/A   Partly Cloudy
5:53 PM 99.0 °F 96.9 °F 54.0 °F 22% 29.75 in 10.0 mi SSE 13.8 mph - N/A   Partly Cloudy
6:53 PM 98.1 °F 95.7 °F 53.1 °F 22% 29.73 in 10.0 mi SE 15.0 mph - N/A   Partly Cloudy
7:53 PM 96.1 °F 93.5 °F 53.1 °F 23% 29.75 in 10.0 mi South 12.7 mph - N/A   Partly Cloudy
8:53 PM 91.0 °F 88.5 °F 53.1 °F 27% 29.78 in 10.0 mi SSW 6.9 mph - N/A   Scattered Clouds
9:53 PM 82.9 °F 82.4 °F 57.0 °F 41% 29.84 in 10.0 mi NW 12.7 mph - N/A   Scattered Clouds
10:53 PM 79.0 °F - 59.0 °F 50% 29.86 in 10.0 mi North 9.2 mph - N/A   Partly Cloudy
11:53 PM 75.9 °F - 60.1 °F 58% 29.83 in 10.0 mi ENE 9.2 mph - N/A   Partly Cloudy
11:58 PM 75.9 °F - 60.1 °F 58% 30.01 in 10.0 mi ENE 9.2 mph - N/A   Partly Cloudy